Location: Unspecified
(0.0000°N, 0.0000°E)
Time: 09:07:39
(UTC+00:00)

CUTE-I - Pass Details

Date: 03 June 2019
Orbit: 810 x 825 km, 98.7° (Epoch: 18 June)

Event Time Altitude Azimuth Distance (km) Brightness Sun altitude
Rises 04:57:05 0° 44° (NE) 3,329 ? -14.1°
Reaches altitude 10° 05:00:16 10° 65° (ENE) 2,404 ? -13.4°
Maximum altitude 05:03:34 17° 103° (ESE) 1,979 ? -12.6°
Drops below altitude 10° 05:06:51 10° 142° (SE) 2,416 ? -11.8°
Sets 05:10:03 0° 162° (SSE) 3,354 ? -11.1°
